This is the latest recevied weather packets stored in our database for station/object DL1MMS-10. If no packets are shown the sender has not sent any weather packets the latest 10 day(s).
| Time | Temp. | Humidity | Pressure | Rain* | Wind** | Luminosity | Snow |
|---|---|---|---|---|---|---|---|
| 1777902699 | 28.89° C | 30% | 1013.2 hPa | 0 mm | - | - | - |
| 1777902398 | 27.78° C | 33% | 1013.2 hPa | 0 mm | - | - | - |
| 1777902098 | 26.67° C | 34% | 1013.1 hPa | 0 mm | - | - | - |
| 1777901798 | 26.67° C | 34% | 1013.3 hPa | 0 mm | - | - | - |
| 1777901497 | 26.67° C | 32% | 1013.2 hPa | 0 mm | - | - | - |
| 1777901197 | 27.22° C | 32% | 1013.3 hPa | 0 mm | - | - | - |
| 1777900897 | 27.22° C | 32% | 1013.4 hPa | 0 mm | - | - | - |
| 1777900597 | 27.22° C | 32% | 1013.5 hPa | 0 mm | - | - | - |
| 1777900296 | 28.33° C | 31% | 1013.4 hPa | 0 mm | - | - | - |
| 1777899996 | 28.89° C | 30% | 1013.5 hPa | 0 mm | - | - | - |
| 1777899696 | 28.89° C | 29% | 1013.6 hPa | 0 mm | - | - | - |
| 1777899396 | 29.44° C | 30% | 1013.6 hPa | 0 mm | - | - | - |
| 1777899095 | 29.44° C | 30% | 1013.3 hPa | 0 mm | - | - | - |
| 1777898795 | 28.33° C | 33% | 1013.5 hPa | 0 mm | - | - | - |
| 1777898495 | 27.22° C | 32% | 1013.6 hPa | 0 mm | - | - | - |
| 1777898194 | 27.22° C | 31% | 1013.6 hPa | 0 mm | - | - | - |
| 1777897894 | 27.78° C | 30% | 1013.8 hPa | 0 mm | - | - | - |
| 1777897594 | 27.78° C | 30% | 1013.8 hPa | 0 mm | - | - | - |
| 1777897294 | 28.89° C | 29% | 1013.7 hPa | 0 mm | - | - | - |
| 1777896993 | 30° C | 28% | 1013.8 hPa | 0 mm | - | - | - |
| 1777896693 | 30.56° C | 28% | 1013.7 hPa | 0 mm | - | - | - |
| 1777896393 | 31.11° C | 28% | 1013.7 hPa | 0 mm | - | - | - |
| 1777896092 | 31.11° C | 28% | 1013.7 hPa | 0 mm | - | - | - |
| 1777895792 | 31.67° C | 27% | 1013.7 hPa | 0 mm | - | - | - |
| 1777895492 | 32.22° C | 26% | 1013.7 hPa | 0 mm | - | - | - |
* Rain latest hour (hover to see other rain measurements)
** Current wind speed in m/s (hover to see current wind gust speed)